Terminal Aerodrome Forecast
Issued by NWS

Current Version | Previous Version | Graphics & Text | Print | Product List | Glossary On
Versions: 1 2 3 4 5 6 7 8 9 10 11 12 13 14 15 16 17 18 19 20 21 22 23 24 25 26 27 28
000
FTUS41 KILN 251300 AAA
TAFLUK
TAF AMD
KLUK 251359Z 2514/2612 20007KT P6SM VCSH BKN050 OVC120
      TEMPO 2514/2516 4SM SHRA OVC040
     FM251600 20016G26KT P6SM VCSH SCT050 BKN090
     FM252300 18006KT P6SM BKN060
     FM261000 16004KT 5SM BR BKN035=

USA.gov is the U.S. government's official web portal to all federal, state and local government web resources and services.